When you browse on this site, cookies collect data to enhance your experience and personalize the content and advertising you see.
Visit our Privacy Policy to learn more. By continuing to use the site, you agree to this use of cookies and data.
  • In France
  • List of Countries
  • For 7 days
  • Water Temperature
  • Weather Map
  • Weather Widgets
  • user-avatar
    Login

    Hourly Weather Galkojo

    Today, 19 August, Monday

    Time Temperature Precipitation Wind Pressure Humidity
    00:00 +28°C° 0 mm 9 mps 733 mmHg 56%
    01:00 +27°C° 0 mm 9 mps 733 mmHg 57%
    02:00 +26°C° 0 mm 9 mps 732 mmHg 58%
    03:00 +26°C° 0 mm 9 mps 732 mmHg 59%
    04:00 +24°C° 0 mm 8 mps 733 mmHg 61%
    05:00 +24°C° 0 mm 8 mps 734 mmHg 63%
    06:00 +23°C° 0 mm 7 mps 734 mmHg 65%
    07:00 +26°C° 0 mm 8 mps 735 mmHg 57%
    08:00 +28°C° 0 mm 9 mps 735 mmHg 49%
    09:00 +31°C° 0 mm 10 mps 735 mmHg 41%
    10:00 +33°C° 0 mm 10 mps 734 mmHg 37%
    11:00 +36°C° 0 mm 10 mps 734 mmHg 33%
    12:00 +38°C° 0 mm 10 mps 733 mmHg 29%
    13:00 +38°C° 0 mm 10 mps 732 mmHg 28%
    14:00 +39°C° 0 mm 10 mps 732 mmHg 27%
    15:00 +39°C° 0 mm 10 mps 731 mmHg 26%
    16:00 +39°C° 0 mm 9 mps 731 mmHg 27%
    17:00 +38°C° 0 mm 7 mps 731 mmHg 28%
    18:00 +36°C° 0 mm 6 mps 731 mmHg 29%
    19:00 +35°C° 0 mm 6 mps 731 mmHg 31%
    20:00 +34°C° 0 mm 6 mps 732 mmHg 33%
    21:00 +32°C° 0 mm 5 mps 732 mmHg 36%
    22:00 +30°C° 0 mm 7 mps 732 mmHg 41%
    23:00 +29°C° 0 mm 8 mps 732 mmHg 46%

    Tomorrow, 20 August, Tuesday

    Time Temperature Precipitation Wind Pressure Humidity
    00:00 +28°C° 0 mm 9 mps 733 mmHg 52%
    01:00 +27°C° 0 mm 9 mps 732 mmHg 56%
    02:00 +26°C° 0 mm 9 mps 732 mmHg 61%
    03:00 +24°C° 0 mm 9 mps 732 mmHg 66%
    04:00 +24°C° 0 mm 8 mps 732 mmHg 67%
    05:00 +24°C° 0 mm 7 mps 733 mmHg 69%
    06:00 +23°C° 0 mm 7 mps 733 mmHg 70%
    07:00 +26°C° 0 mm 8 mps 734 mmHg 62%
    08:00 +28°C° 0 mm 9 mps 735 mmHg 55%
    09:00 +31°C° 0 mm 10 mps 735 mmHg 47%
    10:00 +33°C° 0 mm 10 mps 735 mmHg 42%
    11:00 +36°C° 0 mm 10 mps 734 mmHg 37%
    12:00 +38°C° 0 mm 10 mps 733 mmHg 32%
    13:00 +38°C° 0 mm 10 mps 732 mmHg 30%
    14:00 +39°C° 0 mm 10 mps 732 mmHg 29%
    15:00 +39°C° 0 mm 9 mps 731 mmHg 27%
    16:00 +39°C° 0 mm 8 mps 731 mmHg 28%
    17:00 +38°C° 0 mm 7 mps 731 mmHg 28%
    18:00 +36°C° 0 mm 6 mps 731 mmHg 29%
    19:00 +36°C° 0 mm 6 mps 731 mmHg 31%
    20:00 +35°C° 0 mm 7 mps 732 mmHg 33%
    21:00 +35°C° 0 mm 7 mps 733 mmHg 35%
    22:00 +33°C° 0 mm 8 mps 733 mmHg 41%
    23:00 +32°C° 0 mm 9 mps 733 mmHg 47%

    Day after tomorrow, 21 August, Wednesday

    Time Temperature Precipitation Wind Pressure Humidity
    00:00 +29°C° 0 mm 9 mps 733 mmHg 53%
    01:00 +28°C° 0 mm 9 mps 732 mmHg 56%
    02:00 +27°C° 0 mm 9 mps 732 mmHg 60%
    03:00 +27°C° 0 mm 9 mps 732 mmHg 63%
    04:00 +26°C° 0 mm 8 mps 733 mmHg 65%
    05:00 +26°C° 0 mm 8 mps 733 mmHg 66%
    06:00 +26°C° 0 mm 8 mps 734 mmHg 68%
    07:00 +28°C° 0 mm 9 mps 734 mmHg 60%
    08:00 +29°C° 0 mm 10 mps 734 mmHg 53%
    09:00 +32°C° 0 mm 11 mps 735 mmHg 46%
    10:00 +34°C° 0 mm 11 mps 734 mmHg 41%
    11:00 +37°C° 0 mm 11 mps 734 mmHg 37%
    12:00 +38°C° 0 mm 10 mps 733 mmHg 32%
    13:00 +39°C° 0 mm 10 mps 732 mmHg 31%
    14:00 +40°C° 0 mm 10 mps 731 mmHg 29%
    15:00 +40°C° 0 mm 10 mps 730 mmHg 28%
    16:00 +39°C° 0 mm 9 mps 730 mmHg 29%
    17:00 +39°C° 0 mm 8 mps 731 mmHg 30%
    18:00 +38°C° 0 mm 8 mps 731 mmHg 31%
    19:00 +37°C° 0 mm 8 mps 731 mmHg 33%
    20:00 +37°C° 0 mm 8 mps 732 mmHg 35%
    21:00 +35°C° 0 mm 8 mps 732 mmHg 37%
    22:00 +33°C° 0 mm 9 mps 732 mmHg 42%
    23:00 +32°C° 0 mm 9 mps 732 mmHg 47%

    22 August, Thursday

    Time Temperature Precipitation Wind Pressure Humidity
    00:00 +31°C° 0 mm 10 mps 732 mmHg 52%
    01:00 +29°C° 0 mm 9 mps 732 mmHg 55%
    02:00 +28°C° 0 mm 9 mps 732 mmHg 58%
    03:00 +28°C° 0 mm 9 mps 732 mmHg 61%
    04:00 +27°C° 0 mm 9 mps 733 mmHg 64%
    05:00 +27°C° 0 mm 8 mps 733 mmHg 66%
    06:00 +26°C° 0 mm 8 mps 733 mmHg 69%
    07:00 +28°C° 0 mm 9 mps 734 mmHg 61%
    08:00 +31°C° 0 mm 10 mps 734 mmHg 53%
    09:00 +32°C° 0 mm 11 mps 735 mmHg 45%
    10:00 +34°C° 0 mm 11 mps 734 mmHg 41%
    11:00 +37°C° 0 mm 11 mps 734 mmHg 37%
    12:00 +38°C° 0 mm 11 mps 733 mmHg 32%
    13:00 +39°C° 0 mm 11 mps 732 mmHg 30%
    14:00 +39°C° 0 mm 11 mps 731 mmHg 29%
    15:00 +41°C° 0 mm 11 mps 730 mmHg 27%
    16:00 +39°C° 0 mm 10 mps 730 mmHg 28%
    17:00 +38°C° 0 mm 8 mps 730 mmHg 30%
    18:00 +38°C° 0 mm 7 mps 730 mmHg 31%
    19:00 +36°C° 0 mm 7 mps 731 mmHg 33%
    20:00 +35°C° 0 mm 7 mps 731 mmHg 36%
    21:00 +34°C° 0 mm 7 mps 732 mmHg 38%
    22:00 +33°C° 0 mm 8 mps 732 mmHg 42%
    23:00 +32°C° 0 mm 8 mps 732 mmHg 46%

    23 August, Friday

    Time Temperature Precipitation Wind Pressure Humidity
    00:00 +31°C° 0 mm 8 mps 732 mmHg 50%
    01:00 +29°C° 0 mm 8 mps 732 mmHg 55%
    02:00 +28°C° 0 mm 8 mps 732 mmHg 60%
    03:00 +27°C° 0 mm 8 mps 732 mmHg 65%
    04:00 +26°C° 0 mm 8 mps 732 mmHg 68%
    05:00 +26°C° 0 mm 7 mps 733 mmHg 71%
    06:00 +26°C° 0 mm 7 mps 733 mmHg 75%
    07:00 +27°C° 0 mm 8 mps 734 mmHg 67%
    08:00 +29°C° 0 mm 9 mps 734 mmHg 59%
    09:00 +32°C° 0 mm 11 mps 735 mmHg 51%
    10:00 +33°C° 0 mm 11 mps 734 mmHg 48%
    11:00 +34°C° 0 mm 11 mps 734 mmHg 45%
    12:00 +36°C° 0 mm 12 mps 733 mmHg 42%
    13:00 +37°C° 0 mm 12 mps 732 mmHg 40%
    14:00 +37°C° 0 mm 11 mps 732 mmHg 38%
    15:00 +37°C° 0 mm 11 mps 731 mmHg 36%
    16:00 +37°C° 0 mm 10 mps 731 mmHg 38%
    17:00 +35°C° 0 mm 9 mps 731 mmHg 40%
    18:00 +34°C° 0 mm 8 mps 731 mmHg 41%
    19:00 +34°C° 0 mm 8 mps 732 mmHg 43%
    20:00 +33°C° 0 mm 8 mps 732 mmHg 44%
    21:00 +33°C° 0 mm 8 mps 733 mmHg 46%
    22:00 +31°C° 0 mm 8 mps 733 mmHg 51%
    23:00 +29°C° 0 mm 9 mps 733 mmHg 55%

    24 August, Saturday

    Time Temperature Precipitation Wind Pressure Humidity
    00:00 +28°C° 0 mm 9 mps 733 mmHg 60%
    01:00 +27°C° 0 mm 9 mps 733 mmHg 62%
    02:00 +27°C° 0 mm 9 mps 733 mmHg 63%
    03:00 +26°C° 0 mm 8 mps 733 mmHg 65%
    04:00 +26°C° 0 mm 8 mps 733 mmHg 68%
    05:00 +24°C° 0 mm 7 mps 734 mmHg 72%
    06:00 +24°C° 0 mm 7 mps 734 mmHg 76%
    07:00 +27°C° 0 mm 8 mps 735 mmHg 68%
    08:00 +29°C° 0 mm 9 mps 735 mmHg 61%
    09:00 +31°C° 0 mm 10 mps 736 mmHg 53%
    10:00 +33°C° 0 mm 10 mps 735 mmHg 48%
    11:00 +34°C° 0 mm 10 mps 734 mmHg 44%
    12:00 +36°C° 0 mm 10 mps 734 mmHg 39%
    13:00 +37°C° 0 mm 10 mps 733 mmHg 38%
    14:00 +37°C° 0 mm 10 mps 732 mmHg 37%
    15:00 +37°C° 0 mm 10 mps 731 mmHg 36%
    16:00 +37°C° 0 mm 9 mps 731 mmHg 37%
    17:00 +35°C° 0 mm 8 mps 732 mmHg 38%
    18:00 +35°C° 0 mm 7 mps 732 mmHg 39%
    19:00 +34°C° 0.1 mm 8 mps 732 mmHg 43%
    20:00 +32°C° 0.1 mm 8 mps 733 mmHg 48%
    21:00 +31°C° 0.1 mm 8 mps 733 mmHg 52%
    22:00 +29°C° 0 mm 8 mps 733 mmHg 56%
    23:00 +28°C° 0 mm 9 mps 733 mmHg 59%
    Show more